Printer-friendly version
Follow the MPC on Twitter Follow the MPC on Facebook The MPC blog
Minor Planet Center

MPEC 2009-N10 : 2009 NE

The following Minor Planet Electronic Circular may be linked-to from your own Web pages, but must not otherwise be redistributed electronically.

A form allowing access to any MPEC is at the bottom of this page.


Read MPEC 2009-N09 Read MPEC 2009-N11


M.P.E.C. 2009-N10                                Issued 2009 July 4, 14:56 UT

     The Minor Planet Electronic Circulars contain information on unusual
         minor planets and routine data on comets.  They are published
   on behalf of Commission 20 of the International Astronomical Union by the
          Minor Planet Center, Smithsonian Astrophysical Observatory,
                          Cambridge, MA 02138, U.S.A.

             Prepared using the Tamkin Foundation Computer Network

                              MPC@CFA.HARVARD.EDU
          URL http://www.cfa.harvard.edu/iau/mpc.html  ISSN 1523-6714

                                    2009 NE

Observations:
     K09N00E* C2009 07 02.27959 18 59 16.07 +32 50 35.1          19.6   EN010704
     K09N00E  C2009 07 02.28951 18 59 14.67 +32 50 48.0          19.8   EN010704
     K09N00E  C2009 07 02.29947 18 59 13.25 +32 51 01.3          19.6   EN010704
     K09N00E  C2009 07 02.91586 18 57 47.97 +33 04 49.6          18.5 R EN010A13
     K09N00E  C2009 07 02.91914 18 57 47.49 +33 04 54.1          18.4 R EN010A13
     K09N00E  C2009 07 02.94170 18 57 44.28 +33 05 24.5          18.2 R EN010A13
     K09N00E  C2009 07 02.94421 18 57 43.95 +33 05 27.8          18.3 R EN010A13
     K09N00E  C2009 07 03.16280 18 57 13.40 +33 10 20.6          18.3 V EN010H26
     K09N00E  C2009 07 03.16991 18 57 12.39 +33 10 28.5          18.3 V EN010H26
     K09N00E  C2009 07 03.17292 18 57 11.92 +33 10 34.4          18.7 V EN010H26
     K09N00E 9C2009 07 03.17981 18 57 11.20 +33 10 43.8          18.2 R EN010673
     K09N00E 9C2009 07 03.18255 18 57 10.79 +33 10 47.2                 EN010673
     K09N00E 9C2009 07 03.19388 18 57 09.16 +33 11 02.6                 EN010673
     K09N00E  C2009 07 03.32238 18 56 50.69 +33 13 54.8          18.0 C EN010G56
     K09N00E  C2009 07 03.32878 18 56 49.78 +33 14 04.5          17.1 C EN010G56
     K09N00E  C2009 07 03.33496 18 56 48.81 +33 14 11.1          17.8 C EN010G56
     K09N00E  C2009 07 03.87357 18 55 32.30 +33 26 05.5          18.4 C EN010A81
     K09N00E  C2009 07 03.88983 18 55 29.92 +33 26 27.0          18.6 C EN010A81
     K09N00E  C2009 07 03.90556 18 55 27.64 +33 26 47.8          18.4 C EN010A81
     K09N00E  C2009 07 03.92381 18 55 25.03 +33 27 12.3          18.4 R EN010213
     K09N00E  C2009 07 03.93901 18 55 22.79 +33 27 32.3          18.1 R EN010213
     K09N00E  C2009 07 03.94140 18 55 22.44 +33 27 35.6          18.1 R EN010213
     K09N00E  C2009 07 03.94221 18 55 22.24 +33 27 37.7          18.0 C EN010B40
     K09N00E  C2009 07 03.94481 18 55 21.91 +33 27 41.2          17.9 C EN010B40
     K09N00E  C2009 07 03.94592 18 55 21.77 +33 27 40.7                 EN010J95
     K09N00E  C2009 07 03.94694 18 55 21.56 +33 27 43.9          17.9 C EN010B40
     K09N00E  C2009 07 03.94895 18 55 21.33 +33 27 44.4                 EN010J95
     K09N00E  C2009 07 03.94948 18 55 21.19 +33 27 46.9          17.7 C EN010B40
     K09N00E  C2009 07 03.95196 18 55 20.91 +33 27 47.9          18.3 R EN010J95
     K09N00E  C2009 07 04.06495 18 55 04.21 +33 30 17.8          17.9 V EN010595
     K09N00E  C2009 07 04.06968 18 55 03.53 +33 30 23.9          18.2 V EN010595

Observer details:
213 Observatorio Montcabre.  Observer R. Naves.  Measurer M. Campas.  0.30-m
    f/10 Schmidt-Cassegrain.
595 Farra d'Isonzo.  Observer E. Pettarin.  0.40-m f/4.5 reflector + CCD.
673 Table Mountain Observatory, Wrightwood.  Observer H. Rhoades.  0.61-m f/16
    Cassegrain + CCD.
704 Lincoln Laboratory ETS, New Mexico.  Observers M. Bezpalko, D. Torres,
    R. Kracke, G. Spitz, M. Blythe.  Measurer J. Stuart.  1.0-m f/2.15
    reflector + CCD.
A13 Observatoire Naef, Marly.  Observer P. Kocher.  0.5-m f/3.3 Hypergraph
    + CCD.
A81 Balzaretto Observatory, Rome.  Observer L. Franco.  0.20-m f/5.3 reflector
    + CCD.
B40 Skylive Observatory, Catania.  Observer F. Tozzi.  0.41-m f/10
    Schmidt-Cassegrain + CCD + f/5.6 focal reducer.
G56 Walnut Creek.  Observer G. McKeegan.  0.28-m Schmidt-Cassegrain + CCD
    + f/6.2 focal reducer.
H26 Doc Greiner Research Observatory, Janesvillle.  Observer M. Mills.  0.4-m
    f/8 Schmidt-Cassegrain + CCD.
J95 Great Shefford.  Observer P. Birtwhistle.  0.40-m f/6.0 Schmidt-Cassegrain
    + CCD.

 Orbital elements:
2009 NE                                                  Earth MOID = 0.4396 AU
Epoch 2009 June 18.0 TT = JDT 2455000.5                 MPC
M 336.83881              (2000.0)            P               Q
n   0.19157686     Peri.  198.75104     +0.40004219     -0.80000623
a   2.9801676      Node   230.50752     +0.89741267     +0.44097266
e   0.8835477      Incl.   35.41173     +0.18605576     -0.40685764
P   5.14           H   15.5           G   0.15           U   9
Residuals in seconds of arc
090702 704  0.3+  0.6+    090703 673  0.3+  0.0     090703 B40  0.1+  0.3+
090702 704  0.2+  0.0     090703 673  0.1+  0.1+    090703 B40  0.7+  0.4+
090702 704  0.1-  0.2-    090703 G56  0.1-  0.1+    090703 J95  0.2-  0.4+
090702 A13  0.2-  0.1-    090703 G56  0.1+  1.2+    090703 B40  0.3+  0.3+
090702 A13  0.3-  0.1-    090703 G56  0.9-  0.4-    090703 J95  0.1-  0.1+
090702 A13  0.3-  0.1-    090703 A81  0.0   0.1-    090703 B40  0.3+  0.1-
090702 A13  0.0   0.1-    090703 A81  0.0   0.2-    090703 J95  0.1+  0.4-
090703 H26  0.1+  0.0     090703 A81  0.2+  0.4-    090704 595  0.3-  0.0
090703 H26  0.2+  1.7-    090703 213  0.1+  0.1+    090704 595  0.1-  0.0
090703 H26  0.3-  0.1+    090703 213  0.1-  0.1-
090703 673  0.5+  0.3+    090703 213  0.1-  0.0

Ephemeris:
2009 NE                  a,e,i = 2.98, 0.88, 35                  q = 0.3470
Date    TT    R. A. (2000) Decl.     Delta      r     Elong.  Phase     V
2009 06 28    19 08.45   +31 11.6    1.245    2.005   124.6    24.6    18.6
2009 07 08    18 45.09   +34 53.8    1.130    1.881   122.3    27.2    18.4
2009 07 18    18 15.32   +37 50.1    1.037    1.752   117.1    31.1    18.1
2009 07 28    17 40.78   +39 34.7    0.964    1.616   109.4    36.3    17.9
2009 08 07    17 04.56   +39 54.2    0.905    1.474   100.2    42.6    17.8
2009 08 17    16 29.67   +38 52.3    0.855    1.324    89.9    49.9    17.6
2009 08 27    15 57.52   +36 43.4    0.805    1.165    79.0    58.3    17.5
2009 09 06    15 26.79   +33 39.7    0.750    0.997    67.3    68.8    17.3

Timothy B. Spahr             (C) Copyright 2009 MPC           M.P.E.C. 2009-N10

Read MPEC 2009-N09 Read MPEC 2009-N11


MPEC number:

Enter an MPEC number in one of the following forms:

  • 1997-B01 (the full form)
  • J97B01 (the packed version of the full form)
  • B01 (the abbreviated form)

Valid HTML 4.01!